TimeEDT,TemperatureF,Dew PointF,Humidity,Sea Level PressureIn,VisibilityMPH,Wind Direction,Wind SpeedMPH,Gust SpeedMPH,PrecipitationIn,Events,Conditions,WindDirDegrees,DateUTC
12:15 AM,53.8,53.8,100,30.19,10.0,Calm,Calm,-,N/A,,Mostly Cloudy,0,2013-09-29 04:15:00
12:35 AM,54.7,54.7,100,30.19,10.0,Calm,Calm,-,N/A,,Mostly Cloudy,0,2013-09-29 04:35:00
12:55 AM,55.2,55.2,100,30.20,10.0,Calm,Calm,-,N/A,,Overcast,0,2013-09-29 04:55:00
1:15 AM,55.9,55.9,100,30.20,10.0,Calm,Calm,-,N/A,,Overcast,0,2013-09-29 05:15:00
1:35 AM,56.5,56.5,100,30.19,10.0,NE,3.5,-,N/A,,Overcast,40,2013-09-29 05:35:00
1:55 AM,55.8,55.8,100,30.20,10.0,NNE,3.5,-,N/A,,Mostly Cloudy,30,2013-09-29 05:55:00
2:15 AM,55.4,55.4,100,30.20,10.0,Calm,Calm,-,N/A,,Mostly Cloudy,0,2013-09-29 06:15:00
2:35 AM,56.7,56.7,100,30.20,10.0,Calm,Calm,-,N/A,,Mostly Cloudy,0,2013-09-29 06:35:00
2:55 AM,56.8,56.8,100,30.19,10.0,Calm,Calm,-,N/A,,Overcast,0,2013-09-29 06:55:00
3:15 AM,56.3,56.3,100,30.19,10.0,Calm,Calm,-,N/A,,Scattered Clouds,0,2013-09-29 07:15:00
3:35 AM,56.8,56.8,100,30.19,10.0,NE,3.5,-,N/A,,Clear,40,2013-09-29 07:35:00
3:55 AM,55.8,55.8,100,30.19,10.0,Calm,Calm,-,N/A,,Mostly Cloudy,0,2013-09-29 07:55:00
4:15 AM,56.5,56.5,100,30.18,10.0,Calm,Calm,-,N/A,,Overcast,0,2013-09-29 08:15:00
4:35 AM,56.8,56.8,100,30.17,10.0,Calm,Calm,-,N/A,,Overcast,0,2013-09-29 08:35:00
4:55 AM,57.4,57.4,100,30.17,10.0,North,3.5,-,N/A,,Overcast,10,2013-09-29 08:55:00
5:15 AM,57.4,57.2,99,30.18,10.0,Calm,Calm,-,N/A,,Overcast,0,2013-09-29 09:15:00
5:35 AM,56.3,56.3,100,30.18,10.0,Calm,Calm,-,N/A,,Overcast,0,2013-09-29 09:35:00
5:55 AM,54.9,54.9,100,30.18,10.0,Calm,Calm,-,N/A,,Scattered Clouds,0,2013-09-29 09:55:00
6:15 AM,54.3,54.3,100,30.18,10.0,Calm,Calm,-,N/A,,Clear,0,2013-09-29 10:15:00
6:35 AM,53.4,53.4,100,30.19,7.0,Calm,Calm,-,N/A,,Clear,0,2013-09-29 10:35:00
6:55 AM,53.2,53.2,100,30.19,10.0,Calm,Calm,-,N/A,,Clear,0,2013-09-29 10:55:00
7:15 AM,51.8,51.8,100,30.19,3.0,Calm,Calm,-,N/A,,Clear,0,2013-09-29 11:15:00
7:35 AM,52.3,52.3,100,30.19,7.0,Calm,Calm,-,N/A,,Clear,0,2013-09-29 11:35:00
7:55 AM,51.8,51.8,100,30.19,5.0,Calm,Calm,-,N/A,,Clear,0,2013-09-29 11:55:00
8:15 AM,53.8,53.8,100,30.19,10.0,Calm,Calm,-,N/A,,Clear,0,2013-09-29 12:15:00
8:35 AM,56.7,56.7,100,30.20,10.0,North,3.5,-,N/A,,Clear,10,2013-09-29 12:35:00
8:55 AM,58.8,57.4,95,30.20,10.0,North,3.5,-,N/A,,Clear,360,2013-09-29 12:55:00
9:15 AM,60.3,58.1,93,30.19,10.0,NNE,3.5,-,N/A,,Clear,30,2013-09-29 13:15:00
9:35 AM,61.3,58.6,91,30.19,10.0,North,4.6,-,N/A,,Clear,10,2013-09-29 13:35:00
9:55 AM,63.0,59.0,87,30.20,10.0,NE,4.6,-,N/A,,Clear,50,2013-09-29 13:55:00
10:15 AM,64.0,59.5,85,30.20,10.0,NE,3.5,-,N/A,,Clear,40,2013-09-29 14:15:00
10:35 AM,65.3,59.5,82,30.19,10.0,Calm,Calm,-,N/A,,Clear,0,2013-09-29 14:35:00
10:55 AM,66.9,60.4,80,30.19,10.0,ENE,5.8,-,N/A,,Clear,60,2013-09-29 14:55:00
11:15 AM,68.0,60.6,77,30.19,10.0,NNE,4.6,-,N/A,,Clear,30,2013-09-29 15:15:00
11:35 AM,69.6,60.3,72,30.18,10.0,North,5.8,-,N/A,,Clear,350,2013-09-29 15:35:00
11:55 AM,70.7,60.1,69,30.18,10.0,NNE,4.6,-,N/A,,Scattered Clouds,30,2013-09-29 15:55:00
12:15 PM,70.7,59.9,69,30.18,10.0,NE,4.6,-,N/A,,Scattered Clouds,50,2013-09-29 16:15:00
12:35 PM,70.0,59.9,70,30.17,10.0,NE,4.6,-,N/A,,Scattered Clouds,50,2013-09-29 16:35:00
12:55 PM,72.3,59.4,64,30.16,10.0,NNE,5.8,-,N/A,,Mostly Cloudy,30,2013-09-29 16:55:00
1:15 PM,70.7,59.0,66,30.16,10.0,NE,5.8,-,N/A,,Mostly Cloudy,40,2013-09-29 17:15:00
1:35 PM,69.6,57.6,65,30.15,10.0,Calm,Calm,-,N/A,,Scattered Clouds,0,2013-09-29 17:35:00
1:55 PM,72.5,56.7,57,30.13,10.0,Calm,Calm,-,N/A,,Scattered Clouds,0,2013-09-29 17:55:00
2:15 PM,71.8,59.2,64,30.12,10.0,NNE,4.6,-,N/A,,Mostly Cloudy,20,2013-09-29 18:15:00
2:35 PM,73.2,59.0,61,30.11,10.0,NE,5.8,-,N/A,,Scattered Clouds,50,2013-09-29 18:35:00
2:55 PM,73.4,57.6,58,30.11,10.0,Calm,Calm,-,N/A,,Mostly Cloudy,0,2013-09-29 18:55:00
3:15 PM,72.1,60.3,66,30.10,10.0,NNW,4.6,-,N/A,,Mostly Cloudy,340,2013-09-29 19:15:00
3:35 PM,75.0,58.8,57,30.09,10.0,NNE,5.8,-,N/A,,Scattered Clouds,30,2013-09-29 19:35:00
3:55 PM,73.4,57.2,57,30.08,10.0,NE,5.8,-,N/A,,Scattered Clouds,40,2013-09-29 19:55:00
4:15 PM,73.6,57.0,56,30.08,10.0,North,6.9,-,N/A,,Scattered Clouds,10,2013-09-29 20:15:00
4:35 PM,74.8,56.5,53,30.08,10.0,NNE,5.8,-,N/A,,Scattered Clouds,30,2013-09-29 20:35:00
4:55 PM,75.0,56.1,52,30.08,10.0,NE,8.1,-,N/A,,Mostly Cloudy,40,2013-09-29 20:55:00
5:15 PM,73.4,56.3,55,30.08,10.0,NE,3.5,-,N/A,,Scattered Clouds,50,2013-09-29 21:15:00
5:35 PM,72.9,57.6,59,30.08,10.0,NNE,3.5,-,N/A,,Mostly Cloudy,20,2013-09-29 21:35:00
5:55 PM,71.6,59.0,64,30.09,10.0,NNE,3.5,-,N/A,,Mostly Cloudy,30,2013-09-29 21:55:00
6:15 PM,70.2,60.1,70,30.09,10.0,Calm,Calm,-,N/A,,Clear,0,2013-09-29 22:15:00
6:35 PM,68.4,60.8,77,30.09,10.0,Calm,Calm,-,N/A,,Clear,0,2013-09-29 22:35:00
6:55 PM,66.6,61.9,85,30.09,10.0,NE,3.5,-,N/A,,Clear,40,2013-09-29 22:55:00
7:15 PM,65.3,61.0,86,30.09,10.0,NNE,3.5,-,N/A,,Clear,30,2013-09-29 23:15:00
7:35 PM,63.5,61.0,91,30.09,10.0,Calm,Calm,-,N/A,,Clear,0,2013-09-29 23:35:00
7:55 PM,62.1,60.8,96,30.09,10.0,Calm,Calm,-,N/A,,Clear,0,2013-09-29 23:55:00
8:15 PM,60.8,60.1,97,30.10,10.0,Calm,Calm,-,N/A,,Clear,0,2013-09-30 00:15:00
8:35 PM,60.8,59.9,97,30.10,10.0,Calm,Calm,-,N/A,,Clear,0,2013-09-30 00:35:00
8:55 PM,59.5,59.5,100,30.11,10.0,Calm,Calm,-,N/A,,Clear,0,2013-09-30 00:55:00
9:15 PM,58.5,58.5,100,30.11,10.0,Calm,Calm,-,N/A,,Clear,0,2013-09-30 01:15:00
9:35 PM,58.1,58.1,100,30.11,10.0,Calm,Calm,-,N/A,,Clear,0,2013-09-30 01:35:00
9:55 PM,57.2,57.2,100,30.12,10.0,Calm,Calm,-,N/A,,Clear,0,2013-09-30 01:55:00
10:15 PM,57.6,57.6,100,30.12,10.0,Calm,Calm,-,N/A,,Clear,0,2013-09-30 02:15:00
10:35 PM,57.6,57.6,100,30.11,10.0,Calm,Calm,-,N/A,,Clear,0,2013-09-30 02:35:00
10:55 PM,57.6,57.6,100,30.11,10.0,Calm,Calm,-,N/A,,Clear,0,2013-09-30 02:55:00
11:15 PM,57.2,57.2,100,30.11,10.0,Calm,Calm,-,N/A,,Clear,0,2013-09-30 03:15:00
11:35 PM,57.7,57.7,100,30.11,10.0,Calm,Calm,-,N/A,,Clear,0,2013-09-30 03:35:00
11:55 PM,57.7,57.7,100,30.10,10.0,Calm,Calm,-,N/A,,Clear,0,2013-09-30 03:55:00